Location: Abraham Lincoln Continuation High School
(33.9711°N, 117.3662°W)
Time: 06:32:49
(UTC+00:00)

Cosmos 2034 Rocket - Pass Details

Date: 21 September 2020
Orbit: 957 x 1002 km, 82.9° (Epoch: 26 October)

Event Time Altitude Azimuth Distance (km) Brightness Sun altitude
Rises 02:41:33 0° 166° (SSE) 3,709 6.8 -11.9°
Reaches altitude 10° 02:44:11 10° 160° (SSE) 2,763 6.1 -12.4°
Maximum altitude 02:50:09 45° 90° (E) 1,342 4.3 -13.6°
Drops below altitude 10° 02:56:08 10° 20° (NNE) 2,767 6.3 -14.9°
Sets 02:58:45 0° 14° (NNE) 3,715 7.0 -15.4°
